• In Austria
  • List of Countries
  • For 7 days
  • Water Temperature
  • Satellite Maps
  • Weather Map
  • News
  • Weather Widgets
  • user-avatar
    Login

    Hourly Weather Canillo

    Today, 17 February, Saturday

    Time Temperature Precipitation Wind Pressure Humidity
    00:00 +2°C° 0 mm 1 mps 619 mmHg 89%
    01:00 +2°C° 0 mm 1 mps 618 mmHg 89%
    02:00 +2°C° 0 mm 1 mps 618 mmHg 89%
    03:00 +2°C° 0 mm 1 mps 618 mmHg 88%
    04:00 +2°C° 0.3 mm 1 mps 618 mmHg 90%
    05:00 +2°C° 0.3 mm 1 mps 618 mmHg 91%
    06:00 +1°C° 0 mm 1 mps 618 mmHg 90%
    07:00 +2°C° 0.5 mm 1 mps 619 mmHg 90%
    08:00 +1°C° 0.5 mm 2 mps 619 mmHg 91%
    09:00 +2°C° 0.5 mm 2 mps 620 mmHg 91%
    10:00 +2°C° 0.3 mm 2 mps 620 mmHg 89%
    11:00 +1°C° 0.3 mm 3 mps 620 mmHg 88%
    12:00 +1°C° 0 mm 3 mps 620 mmHg 88%
    13:00 +1°C° 0.3 mm 3 mps 620 mmHg 87%
    14:00 +1°C° 0.3 mm 3 mps 620 mmHg 86%
    15:00 +1°C° 0.3 mm 3 mps 619 mmHg 85%
    16:00 0°C° 0.3 mm 3 mps 619 mmHg 86%
    17:00 -1°C° 0.3 mm 3 mps 619 mmHg 87%
    18:00 -2°C° 0.3 mm 3 mps 619 mmHg 88%
    19:00 -4°C° 0.1 mm 3 mps 619 mmHg 87%
    20:00 -5°C° 0.1 mm 3 mps 619 mmHg 85%
    21:00 -5°C° 0.1 mm 3 mps 619 mmHg 84%
    22:00 -6°C° 0 mm 3 mps 619 mmHg 84%
    23:00 -6°C° 0 mm 3 mps 619 mmHg 84%

    Tomorrow, 18 February, Sunday

    Time Temperature Precipitation Wind Pressure Humidity
    00:00 -7°C° 0 mm 3 mps 618 mmHg 85%
    01:00 -7°C° 0 mm 3 mps 618 mmHg 85%
    02:00 -7°C° 0 mm 3 mps 618 mmHg 85%
    03:00 -7°C° 0 mm 3 mps 618 mmHg 85%
    04:00 -7°C° 0 mm 3 mps 618 mmHg 84%
    05:00 -8°C° 0 mm 3 mps 618 mmHg 83%
    06:00 -8°C° 0 mm 3 mps 617 mmHg 82%
    07:00 -7°C° 0 mm 3 mps 618 mmHg 78%
    08:00 -5°C° 0 mm 3 mps 619 mmHg 73%
    09:00 -3°C° 0 mm 2 mps 619 mmHg 69%
    10:00 -2°C° 0 mm 3 mps 619 mmHg 66%
    11:00 -1°C° 0 mm 3 mps 620 mmHg 64%
    12:00 +1°C° 0 mm 3 mps 620 mmHg 61%
    13:00 +1°C° 0 mm 3 mps 620 mmHg 61%
    14:00 +1°C° 0 mm 3 mps 619 mmHg 62%
    15:00 +1°C° 0 mm 3 mps 619 mmHg 63%
    16:00 -1°C° 0 mm 2 mps 618 mmHg 69%
    17:00 -2°C° 0 mm 2 mps 618 mmHg 76%
    18:00 -4°C° 0 mm 2 mps 617 mmHg 83%
    19:00 -4°C° 0 mm 2 mps 617 mmHg 84%
    20:00 -5°C° 0 mm 2 mps 617 mmHg 85%
    21:00 -5°C° 0 mm 2 mps 616 mmHg 86%
    22:00 -6°C° 0 mm 2 mps 616 mmHg 86%
    23:00 -6°C° 0 mm 2 mps 616 mmHg 86%

    Day after tomorrow, 19 February, Monday

    Time Temperature Precipitation Wind Pressure Humidity
    00:00 -6°C° 0 mm 2 mps 616 mmHg 87%
    01:00 -6°C° 0 mm 2 mps 615 mmHg 86%
    02:00 -6°C° 0 mm 2 mps 615 mmHg 85%
    03:00 -7°C° 0 mm 2 mps 615 mmHg 84%
    04:00 -7°C° 0 mm 2 mps 615 mmHg 83%
    05:00 -7°C° 0 mm 2 mps 615 mmHg 81%
    06:00 -7°C° 0 mm 2 mps 614 mmHg 80%
    07:00 -5°C° 0 mm 2 mps 615 mmHg 75%
    08:00 -4°C° 0 mm 2 mps 616 mmHg 70%
    09:00 -2°C° 0 mm 2 mps 617 mmHg 65%
    10:00 -1°C° 0 mm 2 mps 617 mmHg 62%
    11:00 +1°C° 0 mm 2 mps 617 mmHg 59%
    12:00 +2°C° 0 mm 2 mps 618 mmHg 56%
    13:00 +1°C° 0 mm 3 mps 617 mmHg 57%
    14:00 +1°C° 0 mm 3 mps 617 mmHg 58%
    15:00 +1°C° 0 mm 3 mps 617 mmHg 59%
    16:00 -1°C° 0 mm 3 mps 616 mmHg 68%
    17:00 -4°C° 0 mm 3 mps 615 mmHg 76%
    18:00 -4°C° 0 mm 2 mps 615 mmHg 84%
    19:00 -4°C° 0 mm 2 mps 615 mmHg 85%
    20:00 -5°C° 0 mm 2 mps 615 mmHg 86%
    21:00 -6°C° 0 mm 3 mps 615 mmHg 86%
    22:00 -6°C° 0 mm 3 mps 615 mmHg 85%
    23:00 -6°C° 0 mm 3 mps 615 mmHg 84%

    20 February, Tuesday

    Time Temperature Precipitation Wind Pressure Humidity
    00:00 -6°C° 0 mm 3 mps 615 mmHg 83%
    01:00 -6°C° 0 mm 3 mps 615 mmHg 83%
    02:00 -6°C° 0 mm 3 mps 615 mmHg 82%
    03:00 -6°C° 0 mm 3 mps 614 mmHg 81%
    04:00 -6°C° 0 mm 3 mps 614 mmHg 82%
    05:00 -6°C° 0 mm 3 mps 614 mmHg 82%
    06:00 -6°C° 0 mm 3 mps 614 mmHg 82%
    07:00 -5°C° 0 mm 3 mps 615 mmHg 79%
    08:00 -2°C° 0 mm 3 mps 615 mmHg 76%
    09:00 -1°C° 0 mm 3 mps 616 mmHg 73%
    10:00 -1°C° 0.1 mm 3 mps 616 mmHg 73%
    11:00 0°C° 0.1 mm 3 mps 616 mmHg 72%
    12:00 +1°C° 0.1 mm 3 mps 616 mmHg 72%
    13:00 +1°C° 0.4 mm 3 mps 616 mmHg 74%
    14:00 +1°C° 0.4 mm 3 mps 615 mmHg 76%
    15:00 +1°C° 0.4 mm 3 mps 614 mmHg 78%
    16:00 0°C° 0.9 mm 3 mps 614 mmHg 81%
    17:00 -1°C° 0.9 mm 3 mps 614 mmHg 84%
    18:00 -2°C° 0.9 mm 3 mps 613 mmHg 87%
    19:00 -2°C° 0.5 mm 3 mps 613 mmHg 87%
    20:00 -3°C° 0.5 mm 4 mps 613 mmHg 87%
    21:00 -3°C° 0.5 mm 4 mps 613 mmHg 87%
    22:00 -3°C° 0.3 mm 4 mps 613 mmHg 87%
    23:00 -4°C° 0.3 mm 4 mps 613 mmHg 87%

    21 February, Wednesday

    Time Temperature Precipitation Wind Pressure Humidity
    00:00 -4°C° 0.3 mm 4 mps 612 mmHg 86%
    01:00 -4°C° 0.5 mm 4 mps 612 mmHg 86%
    02:00 -5°C° 0.5 mm 4 mps 611 mmHg 86%
    03:00 -5°C° 0.5 mm 4 mps 611 mmHg 86%
    04:00 -5°C° 0.6 mm 4 mps 611 mmHg 87%
    05:00 -5°C° 0.6 mm 4 mps 611 mmHg 87%
    06:00 -5°C° 0.6 mm 4 mps 610 mmHg 87%
    07:00 -5°C° 0.2 mm 4 mps 610 mmHg 83%
    08:00 -5°C° 0.2 mm 4 mps 611 mmHg 80%
    09:00 -5°C° 0.2 mm 4 mps 611 mmHg 77%
    10:00 -5°C° 0.1 mm 4 mps 611 mmHg 74%
    11:00 -5°C° 0.1 mm 4 mps 611 mmHg 70%
    12:00 -5°C° 0.1 mm 4 mps 611 mmHg 67%
    13:00 -5°C° 0.1 mm 4 mps 610 mmHg 67%
    14:00 -5°C° 0.1 mm 4 mps 610 mmHg 67%
    15:00 -5°C° 0.1 mm 4 mps 610 mmHg 67%
    16:00 -7°C° 0.1 mm 4 mps 609 mmHg 70%
    17:00 -8°C° 0.1 mm 4 mps 609 mmHg 74%
    18:00 -8°C° 0.1 mm 3 mps 609 mmHg 77%
    19:00 -8°C° 0.1 mm 3 mps 609 mmHg 78%
    20:00 -9°C° 0.1 mm 3 mps 609 mmHg 79%
    21:00 -9°C° 0.1 mm 3 mps 609 mmHg 80%
    22:00 -9°C° 0.1 mm 3 mps 608 mmHg 80%
    23:00 -10°C° 0.1 mm 3 mps 608 mmHg 80%

    22 February, Thursday

    Time Temperature Precipitation Wind Pressure Humidity
    00:00 -10°C° 0.1 mm 3 mps 608 mmHg 80%
    01:00 -10°C° 0 mm 3 mps 607 mmHg 80%
    02:00 -12°C° 0 mm 3 mps 607 mmHg 80%
    03:00 -12°C° 0 mm 3 mps 606 mmHg 80%
    04:00 -12°C° 0 mm 3 mps 606 mmHg 80%
    05:00 -13°C° 0 mm 3 mps 606 mmHg 79%
    06:00 -13°C° 0 mm 3 mps 606 mmHg 79%
    07:00 -12°C° 0 mm 3 mps 606 mmHg 76%
    08:00 -10°C° 0 mm 3 mps 607 mmHg 72%
    09:00 -9°C° 0 mm 3 mps 607 mmHg 68%
    10:00 -8°C° 0 mm 3 mps 607 mmHg 66%
    11:00 -7°C° 0 mm 3 mps 608 mmHg 63%
    12:00 -5°C° 0 mm 2 mps 608 mmHg 61%
    13:00 -5°C° 0 mm 2 mps 608 mmHg 62%
    14:00 -5°C° 0 mm 2 mps 607 mmHg 63%
    15:00 -5°C° 0 mm 2 mps 607 mmHg 64%
    16:00 -6°C° 0.1 mm 2 mps 607 mmHg 70%
    17:00 -7°C° 0.1 mm 2 mps 607 mmHg 76%
    18:00 -7°C° 0.1 mm 1 mps 607 mmHg 82%
    19:00 -8°C° 0.1 mm 1 mps 607 mmHg 83%
    20:00 -8°C° 0.1 mm 1 mps 607 mmHg 84%
    21:00 -9°C° 0.1 mm 1 mps 607 mmHg 85%
    22:00 -9°C° 0.1 mm 1 mps 607 mmHg 84%
    23:00 -9°C° 0.1 mm 1 mps 607 mmHg 83%
    Show more